TimeEDT,TemperatureF,Dew PointF,Humidity,Sea Level PressureIn,VisibilityMPH,Wind Direction,Wind SpeedMPH,Gust SpeedMPH,PrecipitationIn,Events,Conditions,WindDirDegrees,DateUTC
12:51 AM,42.1,27.0,55,30.09,-9999.0,WNW,5.8,-,N/A,,Unknown,300,2012-10-07 04:51:00
1:51 AM,42.1,27.0,55,30.08,-9999.0,NNW,11.5,-,N/A,,Unknown,340,2012-10-07 05:51:00
2:51 AM,42.1,26.1,53,30.08,-9999.0,WNW,5.8,-,N/A,,Unknown,300,2012-10-07 06:51:00
3:51 AM,41.0,28.9,62,30.07,-9999.0,Variable,3.5,-,N/A,,Unknown,0,2012-10-07 07:51:00
4:51 AM,39.9,28.9,65,30.06,-9999.0,Variable,5.8,-,N/A,,Unknown,0,2012-10-07 08:51:00
5:51 AM,43.0,30.9,62,30.05,-9999.0,NNW,9.2,24.2,N/A,,Unknown,330,2012-10-07 09:51:00
6:51 AM,41.0,28.9,62,30.04,-9999.0,Variable,4.6,-,N/A,,Unknown,0,2012-10-07 10:51:00
7:51 AM,39.9,28.0,63,30.04,-9999.0,WNW,4.6,-,N/A,,Unknown,300,2012-10-07 11:51:00
8:51 AM,39.9,28.9,65,30.04,-9999.0,Variable,5.8,-,N/A,,Unknown,0,2012-10-07 12:51:00
9:51 AM,43.0,30.9,62,30.02,-9999.0,West,6.9,-,N/A,,Unknown,260,2012-10-07 13:51:00
10:51 AM,45.0,28.9,53,30.01,-9999.0,Variable,6.9,17.3,N/A,,Unknown,0,2012-10-07 14:51:00
11:51 AM,45.0,30.0,56,30.01,-9999.0,NW,9.2,17.3,N/A,,Unknown,320,2012-10-07 15:51:00
12:51 PM,46.0,27.0,47,29.99,-9999.0,NNW,6.9,21.9,N/A,,Unknown,330,2012-10-07 16:51:00
1:51 PM,46.0,26.1,46,29.98,-9999.0,West,9.2,20.7,N/A,,Unknown,280,2012-10-07 17:51:00
2:51 PM,48.0,23.0,37,29.96,-9999.0,WNW,10.4,27.6,N/A,,Unknown,300,2012-10-07 18:51:00
3:51 PM,48.0,23.0,37,29.95,-9999.0,NW,12.7,24.2,N/A,,Unknown,320,2012-10-07 19:51:00
4:51 PM,48.0,21.9,36,29.93,-9999.0,WNW,9.2,18.4,N/A,,Unknown,300,2012-10-07 20:51:00
5:51 PM,46.9,24.1,41,29.92,-9999.0,Variable,5.8,21.9,N/A,,Unknown,0,2012-10-07 21:51:00
6:51 PM,46.9,24.1,41,29.92,-9999.0,NW,8.1,-,N/A,,Unknown,310,2012-10-07 22:51:00
7:51 PM,45.0,25.0,46,29.92,-9999.0,WSW,4.6,-,N/A,,Unknown,250,2012-10-07 23:51:00
8:51 PM,44.1,26.1,49,29.92,-9999.0,WSW,4.6,-,N/A,,Unknown,250,2012-10-08 00:51:00
9:51 PM,45.0,23.0,42,29.91,-9999.0,West,5.8,-,N/A,,Unknown,260,2012-10-08 01:51:00
10:51 PM,43.0,23.0,45,29.91,-9999.0,West,6.9,-,N/A,,Unknown,260,2012-10-08 02:51:00
11:51 PM,42.1,23.0,47,29.90,-9999.0,West,6.9,-,N/A,,Unknown,260,2012-10-08 03:51:00